TimeEST,TemperatureF,Dew PointF,Humidity,Sea Level PressureIn,VisibilityMPH,Wind Direction,Wind SpeedMPH,Gust SpeedMPH,PrecipitationIn,Events,Conditions,WindDirDegrees,DateUTC
12:53 AM,48.9,48.0,97,30.27,4.0,Calm,Calm,-,N/A,,Overcast,0,2013-01-29 05:53:00
1:53 AM,46.9,46.0,97,30.26,3.0,Calm,Calm,-,N/A,,Clear,0,2013-01-29 06:53:00
2:36 AM,46.4,46.4,100,30.25,2.5,Calm,Calm,-,N/A,,Clear,0,2013-01-29 07:36:00
2:53 AM,46.9,46.0,97,30.25,2.5,Calm,Calm,-,N/A,,Clear,0,2013-01-29 07:53:00
3:07 AM,46.4,46.4,100,30.25,4.0,Calm,Calm,-,N/A,,Scattered Clouds,0,2013-01-29 08:07:00
3:53 AM,46.9,46.9,100,30.24,4.0,Calm,Calm,-,N/A,,Mostly Cloudy,0,2013-01-29 08:53:00
4:28 AM,46.4,46.4,100,30.24,2.0,Calm,Calm,-,N/A,,Clear,0,2013-01-29 09:28:00
4:53 AM,46.0,45.0,96,30.23,2.0,Calm,Calm,-,N/A,,Clear,0,2013-01-29 09:53:00
5:19 AM,44.6,44.6,100,30.23,3.0,Calm,Calm,-,N/A,,Partly Cloudy,0,2013-01-29 10:19:00
5:30 AM,44.6,42.8,93,30.23,2.5,Calm,Calm,-,N/A,,Mostly Cloudy,0,2013-01-29 10:30:00
5:40 AM,44.6,42.8,93,30.23,3.0,Calm,Calm,-,N/A,,Overcast,0,2013-01-29 10:40:00
5:53 AM,45.0,45.0,100,30.23,3.0,Calm,Calm,-,N/A,,Overcast,0,2013-01-29 10:53:00
6:10 AM,46.4,46.4,100,30.23,2.5,Calm,Calm,-,N/A,,Overcast,0,2013-01-29 11:10:00
6:24 AM,46.4,46.4,100,30.23,3.0,Calm,Calm,-,N/A,,Overcast,0,2013-01-29 11:24:00
6:53 AM,46.9,46.0,97,30.23,4.0,Calm,Calm,-,N/A,,Overcast,0,2013-01-29 11:53:00
7:08 AM,46.4,46.4,100,30.24,1.5,Calm,Calm,-,N/A,,Overcast,0,2013-01-29 12:08:00
7:12 AM,46.4,46.4,100,30.24,0.2,Calm,Calm,-,N/A,Fog,Fog,0,2013-01-29 12:12:00
7:21 AM,46.4,46.4,100,30.23,0.2,Calm,Calm,-,N/A,Fog,Fog,0,2013-01-29 12:21:00
7:53 AM,48.0,48.0,100,30.23,0.2,Calm,Calm,-,N/A,Fog,Fog,0,2013-01-29 12:53:00
8:33 AM,50.0,48.2,94,30.23,0.5,Calm,Calm,-,N/A,Fog,Fog,0,2013-01-29 13:33:00
8:46 AM,50.0,50.0,100,30.22,1.0,Calm,Calm,-,N/A,,Overcast,0,2013-01-29 13:46:00
8:53 AM,50.0,50.0,100,30.22,1.2,Calm,Calm,-,N/A,,Overcast,0,2013-01-29 13:53:00
9:08 AM,51.8,51.8,100,30.22,2.5,Calm,Calm,-,N/A,,Overcast,0,2013-01-29 14:08:00
9:25 AM,51.8,51.8,100,30.23,3.0,Calm,Calm,-,N/A,,Overcast,0,2013-01-29 14:25:00
9:49 AM,55.4,53.6,94,30.22,4.0,Calm,Calm,-,N/A,,Scattered Clouds,0,2013-01-29 14:49:00
9:53 AM,55.0,54.0,96,30.22,5.0,Calm,Calm,-,N/A,,Mostly Cloudy,0,2013-01-29 14:53:00
10:53 AM,66.0,59.0,78,30.21,9.0,Variable,3.5,-,N/A,,Scattered Clouds,0,2013-01-29 15:53:00
11:53 AM,72.0,61.0,68,30.18,10.0,South,6.9,-,N/A,,Mostly Cloudy,170,2013-01-29 16:53:00
12:53 PM,73.9,61.0,64,30.14,10.0,South,9.2,-,N/A,,Overcast,170,2013-01-29 17:53:00
1:53 PM,75.9,62.1,62,30.10,10.0,South,6.9,-,N/A,,Mostly Cloudy,170,2013-01-29 18:53:00
2:53 PM,75.0,62.1,64,30.07,10.0,South,10.4,20.7,N/A,,Overcast,180,2013-01-29 19:53:00
3:53 PM,75.0,59.0,57,30.06,10.0,South,6.9,17.3,N/A,,Overcast,180,2013-01-29 20:53:00
4:53 PM,75.0,59.0,57,30.04,10.0,SSE,8.1,-,N/A,,Overcast,160,2013-01-29 21:53:00
5:53 PM,73.9,59.0,59,30.04,10.0,SSE,5.8,-,N/A,,Overcast,160,2013-01-29 22:53:00
6:53 PM,72.0,60.1,66,30.04,10.0,Calm,Calm,-,N/A,,Overcast,0,2013-01-29 23:53:00
7:53 PM,73.0,59.0,61,30.04,10.0,South,6.9,-,N/A,,Overcast,180,2013-01-30 00:53:00
8:53 PM,72.0,59.0,64,30.04,10.0,South,8.1,16.1,N/A,,Overcast,180,2013-01-30 01:53:00
9:53 PM,70.0,57.9,65,30.03,10.0,South,8.1,-,N/A,,Clear,190,2013-01-30 02:53:00
10:53 PM,70.0,57.9,65,30.04,10.0,SSW,9.2,-,N/A,,Overcast,200,2013-01-30 03:53:00
11:53 PM,68.0,57.9,70,30.01,10.0,South,6.9,-,N/A,,Mostly Cloudy,180,2013-01-30 04:53:00